This is the latest recevied weather packets stored in our database for station/object K9YK-13. If no packets are shown the sender has not sent any weather packets the latest 10 day(s).
| Time | Temp. | Humidity | Pressure | Rain* | Wind** | Luminosity | Snow |
|---|---|---|---|---|---|---|---|
| 1777583772 | 16.11° C | 50% | 0 hPa | 0 mm | - | - | - |
| 1777583472 | 17.22° C | 49% | 0 hPa | 0 mm | - | - | - |
| 1777583172 | 17.78° C | 51% | 0 hPa | 0 mm | - | - | - |
| 1777582872 | 17.78° C | 52% | 0 hPa | 0 mm | - | - | - |
| 1777582572 | 17.78° C | 50% | 0 hPa | 0 mm | - | - | - |
| 1777582272 | 17.78° C | 50% | 0 hPa | 0 mm | - | - | - |
| 1777581973 | 17.22° C | 53% | 0 hPa | 0 mm | - | - | - |
| 1777581672 | 17.22° C | 53% | 0 hPa | 0 mm | - | - | - |
| 1777581372 | 17.78° C | 52% | 0 hPa | 0 mm | - | - | - |
| 1777581072 | 17.22° C | 49% | 0 hPa | 0 mm | - | - | - |
| 1777580772 | 17.78° C | 50% | 0 hPa | 0 mm | - | - | - |
| 1777580472 | 17.22° C | 50% | 0 hPa | 0 mm | - | - | - |
| 1777580172 | 17.78° C | 54% | 0 hPa | 0 mm | - | - | - |
| 1777579872 | 17.22° C | 53% | 0 hPa | 0 mm | - | - | - |
| 1777579572 | 17.78° C | 49% | 0 hPa | 0 mm | - | - | - |
| 1777579272 | 17.22° C | 47% | 0 hPa | 0 mm | - | - | - |
| 1777578972 | 17.78° C | 42% | 0 hPa | 0 mm | - | - | - |
| 1777578672 | 17.78° C | 46% | 0 hPa | 0 mm | - | - | - |
| 1777578373 | 17.78° C | 45% | 0 hPa | 0 mm | - | - | - |
| 1777578072 | 17.78° C | 45% | 0 hPa | 0 mm | - | - | - |
| 1777577772 | 18.33° C | 43% | 0 hPa | 0 mm | - | - | - |
| 1777577472 | 18.33° C | 42% | 0 hPa | 0 mm | - | - | - |
| 1777577172 | 18.89° C | 44% | 0 hPa | 0 mm | - | - | - |
| 1777576872 | 18.33° C | 42% | 0 hPa | 0 mm | - | - | - |
| 1777576572 | 17.78° C | 46% | 0 hPa | 0 mm | - | - | - |
* Rain latest hour (hover to see other rain measurements)
** Current wind speed in m/s (hover to see current wind gust speed)